カタログに戻る

STARLINK-30781

運用中通信VLEO
NORAD 58123·PAYLOAD·🇺🇸 United States

打ち上げ Oct 22, 2023 から Cape Canaveral Space Force Station

Loading…

次のパス (今後24時間)

TLE

最新Source: CelesTrak SupGP

元期: Sep 14, 2026, 22:29 UTC

1 58123C 23162F   26257.93729167  .00001648  00000+0  59695-4 0  2572
2 58123  43.0011 143.5992 0001691 262.8144  22.3691 15.27571184    12

AllMySatでSTARLINK-30781をリアルタイム追跡

Download on the App Store